Regional Weather Roundup
Issued by NWS

Home | Current Version | Previous Version | Text Only | Print | Product List | Glossary Off
Versions: 1 2 3 4 5 6 7 8 9 10 11 12 13 14 15 16 17 18 19 20 21 22 23 24 25 26 27 28 29 30 31 32 33 34 35 36 37 38 39 40 41 42 43 44 45 46 47 48 49 50

000
ASUS43 KOAX 161110
RWRNE

WEATHER ROUNDUP FOR NEBRASKA
NATIONAL WEATHER SERVICE OMAHA NE
600 AM CDT WED AUG 16 2017

NOTES: SATELLITE DATA IS BEING USED TO AUGMENT CLOUD COVER ABOVE
       12000 FEET.
       "FAIR" INDICATES FEW OR NO CLOUDS BELOW 12,000 FEET WITH NO
       SIGNIFICANT WEATHER AND/OR OBSTRUCTIONS TO VISIBILITY.


NEZ001>004-019>022-054>056-161200-
NEBRASKA PANHANDLE

CITY           SKY/WX    TMP DP  RH WIND       PRES   REMARKS
SCOTTSBLUFF    CLOUDY    59  55  87 NW6       29.99S
ALLIANCE       CLOUDY    59  58  96 W7        29.96S
CHADRON        CLOUDY    62  57  83 CALM      29.96R
GORDON         CLOUDY    60  58  93 NW5       29.93S
KIMBALL        PTCLDY    56  55  96 NW8       30.02S
SIDNEY         CLOUDY    58  57  97 NW9       29.98F
$$

NEZ057>060-069>072-079>082-161200-
SOUTHWEST NEBRASKA

CITY           SKY/WX    TMP DP  RH WIND       PRES   REMARKS
NORTH PLATTE   CLOUDY    61  59  93 W8        29.87R
IMPERIAL       CLOUDY    61  58  90 NW5       29.92F
LEXINGTON      LGT RAIN  62  60  93 NW6       29.82R
MCCOOK         CLOUDY    61  61 100 W6        29.85R
OGALLALA       CLOUDY    62  60  95 CALM      29.91F
$$

NEZ005>010-023>029-035>040-094-161200-
NORTH CENTRAL NEBRASKA

CITY           SKY/WX    TMP DP  RH WIND       PRES   REMARKS
VALENTINE      CLOUDY    64  58  80 NW14      29.85S
AINSWORTH      CLOUDY    62  62 100 NW9       29.84R
BROKEN BOW     CLOUDY    62  62 100 W5        29.80F
O`NEILL        CLOUDY    62  62 100 N6        29.79S
ORD            LGT RAIN  62  60  93 NE3       29.74F
THEDFORD       CLOUDY    60  59  96 NW8       29.87R
$$

NEZ041-046>049-061>064-073>077-083>087-161200-
SOUTH CENTRAL NEBRASKA

CITY           SKY/WX    TMP DP  RH WIND       PRES   REMARKS
GRAND ISLAND   LGT RAIN  63  63 100 W6        29.79F
AURORA         CLOUDY    63  63 100 SW5       29.73F
HASTINGS       TSTM      64  61  90 SW7       29.86R
HEBRON         TSTM      69  64  85 W36G44    29.83R
HOLDREGE       RAIN      62  60  94 SE5       29.83R
KEARNEY        CLOUDY    62  61  96 E12       29.80F FOG
YORK           LGT RAIN  64  64 100 NW5       29.78F
$$

NEZ011>018-030>034-042>045-161200-
NORTHEAST NEBRASKA

CITY           SKY/WX    TMP DP  RH WIND       PRES   REMARKS
NORFOLK        CLOUDY    66  64  93 N9        29.79F
ALBION         CLOUDY    65  64  97 NE12      29.72F
BLAIR          RAIN      69  68  96 N6        29.78F
COLUMBUS       LGT RAIN  67  66  97 SW12G17   29.79R
FREMONT        TSTM      68  67  94 NE10G16   29.76F
TEKAMAH        CLOUDY    68  66  93 N10       29.80F
WAYNE          RAIN      66  63  91 NE10      29.81S
$$

NEZ050>053-065>068-078-088>093-161200-
SOUTHEAST NEBRASKA

CITY           SKY/WX    TMP DP  RH WIND       PRES   REMARKS
LINCOLN        CLOUDY    73  70  90 SE9       29.76R
OMAHA EPPLEY   CLOUDY    73  68  84 E7        29.77F
BEATRICE       CLOUDY    75  72  90 S10       29.75F
FALLS CITY     CLOUDY    73  70  90 SE8       29.76F
NEBRASKA CITY  CLOUDY    73  73 100 SE9       29.77F
PLATTSMOUTH    CLOUDY    73  69  89 SE8       29.77F
$$

NEZ044-045-051>053-067-161200-
OMAHA AREA

CITY           SKY/WX    TMP DP  RH WIND       PRES   REMARKS
OMAHA EPPLEY   CLOUDY    73  68  84 E7        29.77F
BLAIR          RAIN      69  68  96 N6        29.78F
FREMONT        TSTM      68  67  94 NE10G16   29.76F
MILLARD        CLOUDY    73  70  92 CALM      29.76F
OFFUTT AFB     CLOUDY    72  68  88 E10       29.75F
PLATTSMOUTH    CLOUDY    73  69  89 SE8       29.77F
WAHOO          LGT RAIN  70  69  97 NW12      29.79R
$$




USA.gov is the U.S. government's official web portal to all federal, state and local government web resources and services.